TimeEDT,TemperatureF,Dew PointF,Humidity,Sea Level PressureIn,VisibilityMPH,Wind Direction,Wind SpeedMPH,Gust SpeedMPH,PrecipitationIn,Events,Conditions,WindDirDegrees,DateUTC
12:15 AM,31.5,8.8,39,30.00,10.0,North,6.9,-,N/A,,Clear,350,2013-03-22 04:15:00
12:35 AM,30.7,9.3,41,30.00,10.0,North,6.9,-,N/A,,Clear,360,2013-03-22 04:35:00
12:55 AM,30.4,9.5,42,30.00,10.0,North,6.9,-,N/A,,Clear,360,2013-03-22 04:55:00
1:15 AM,30.0,9.5,42,30.00,10.0,North,5.8,-,N/A,,Clear,10,2013-03-22 05:15:00
1:35 AM,28.6,9.9,46,30.00,10.0,North,4.6,-,N/A,,Clear,10,2013-03-22 05:35:00
1:55 AM,27.5,10.6,49,30.00,10.0,Calm,Calm,-,N/A,,Clear,0,2013-03-22 05:55:00
2:15 AM,23.9,12.7,62,30.00,10.0,Calm,Calm,-,N/A,,Clear,0,2013-03-22 06:15:00
2:35 AM,21.9,13.5,70,30.00,10.0,Calm,Calm,-,N/A,,Clear,0,2013-03-22 06:35:00
2:55 AM,26.6,10.9,52,30.00,10.0,North,5.8,-,N/A,,Clear,10,2013-03-22 06:55:00
3:15 AM,24.1,12.0,60,30.00,10.0,Calm,Calm,-,N/A,,Clear,0,2013-03-22 07:15:00
3:35 AM,22.8,13.1,66,30.00,10.0,Calm,Calm,-,N/A,,Clear,0,2013-03-22 07:35:00
3:55 AM,20.1,13.6,76,30.00,10.0,Calm,Calm,-,N/A,,Clear,0,2013-03-22 07:55:00
4:15 AM,19.4,13.6,78,30.01,10.0,Calm,Calm,-,N/A,,Clear,0,2013-03-22 08:15:00
4:35 AM,19.8,14.7,81,30.00,10.0,Calm,Calm,-,N/A,,Clear,0,2013-03-22 08:35:00
4:55 AM,18.3,14.2,84,30.01,10.0,Calm,Calm,-,N/A,,Clear,0,2013-03-22 08:55:00
5:15 AM,18.5,13.6,81,30.02,10.0,Calm,Calm,-,N/A,,Clear,0,2013-03-22 09:15:00
5:35 AM,17.8,13.8,84,30.02,10.0,Calm,Calm,-,N/A,,Clear,0,2013-03-22 09:35:00
5:55 AM,18.3,13.5,81,30.03,10.0,Calm,Calm,-,N/A,,Clear,0,2013-03-22 09:55:00
6:15 AM,17.1,13.6,86,30.03,10.0,Calm,Calm,-,N/A,,Clear,0,2013-03-22 10:15:00
6:35 AM,16.7,13.3,86,30.04,10.0,Calm,Calm,-,N/A,,Clear,0,2013-03-22 10:35:00
6:55 AM,17.8,13.3,83,30.05,10.0,Calm,Calm,-,N/A,,Clear,0,2013-03-22 10:55:00
7:15 AM,17.4,13.3,84,30.06,10.0,Calm,Calm,-,N/A,,Clear,0,2013-03-22 11:15:00
7:35 AM,17.4,13.5,84,30.07,10.0,Calm,Calm,-,N/A,,Clear,0,2013-03-22 11:35:00
7:55 AM,17.8,15.1,89,30.08,10.0,Calm,Calm,-,N/A,,Clear,0,2013-03-22 11:55:00
8:15 AM,22.1,17.8,83,30.08,10.0,Calm,Calm,-,N/A,,Clear,0,2013-03-22 12:15:00
8:35 AM,26.4,18.0,70,30.09,10.0,Calm,Calm,-,N/A,,Clear,0,2013-03-22 12:35:00
8:55 AM,28.0,17.2,64,30.09,10.0,Calm,Calm,-,N/A,,Clear,0,2013-03-22 12:55:00
9:15 AM,29.3,15.3,56,30.10,10.0,Calm,Calm,-,N/A,,Clear,0,2013-03-22 13:15:00
9:35 AM,30.2,14.5,52,30.08,10.0,Calm,Calm,-,N/A,,Clear,0,2013-03-22 13:35:00
9:55 AM,31.8,15.3,50,30.08,10.0,West,4.6,-,N/A,,Clear,260,2013-03-22 13:55:00
10:15 AM,33.4,14.4,46,30.08,10.0,WSW,4.6,-,N/A,,Clear,240,2013-03-22 14:15:00
10:35 AM,35.2,13.5,41,30.08,10.0,West,5.8,-,N/A,,Clear,270,2013-03-22 14:35:00
10:55 AM,36.5,13.3,39,30.08,10.0,SW,5.8,-,N/A,,Clear,230,2013-03-22 14:55:00
11:15 AM,37.8,12.2,35,30.07,10.0,Calm,Calm,-,N/A,,Scattered Clouds,0,2013-03-22 15:15:00
11:35 AM,37.9,11.5,34,30.07,10.0,SW,5.8,-,N/A,,Mostly Cloudy,220,2013-03-22 15:35:00
11:55 AM,39.4,11.1,31,30.07,10.0,Calm,Calm,-,N/A,,Scattered Clouds,0,2013-03-22 15:55:00
12:15 PM,41.0,10.2,28,30.06,10.0,Calm,Calm,-,N/A,,Clear,0,2013-03-22 16:15:00
12:35 PM,42.4,10.8,27,30.05,10.0,West,3.5,-,N/A,,Clear,280,2013-03-22 16:35:00
12:55 PM,44.1,11.1,26,30.04,10.0,Calm,Calm,-,N/A,,Clear,0,2013-03-22 16:55:00
1:15 PM,44.8,10.8,25,30.04,10.0,WNW,3.5,-,N/A,,Clear,290,2013-03-22 17:15:00
1:35 PM,46.2,9.5,23,30.03,10.0,WSW,6.9,-,N/A,,Clear,240,2013-03-22 17:35:00
1:55 PM,47.5,9.3,21,30.02,10.0,SW,6.9,-,N/A,,Clear,230,2013-03-22 17:55:00
2:15 PM,48.2,7.2,19,30.00,10.0,NW,5.8,-,N/A,,Clear,310,2013-03-22 18:15:00
2:35 PM,50.5,9.7,19,30.00,10.0,SW,6.9,-,N/A,,Clear,230,2013-03-22 18:35:00
2:55 PM,50.2,7.3,18,30.00,10.0,SSW,6.9,-,N/A,,Scattered Clouds,200,2013-03-22 18:55:00
3:15 PM,49.6,9.0,19,30.00,10.0,SSW,5.8,-,N/A,,Mostly Cloudy,210,2013-03-22 19:15:00
3:35 PM,49.6,7.0,18,29.99,10.0,SSW,3.5,-,N/A,,Overcast,200,2013-03-22 19:35:00
3:55 PM,50.2,9.5,19,29.99,10.0,SW,4.6,-,N/A,,Overcast,230,2013-03-22 19:55:00
4:15 PM,50.5,10.4,20,29.99,10.0,South,5.8,-,N/A,,Overcast,190,2013-03-22 20:15:00
4:35 PM,50.9,12.2,21,29.98,10.0,SW,5.8,-,N/A,,Overcast,220,2013-03-22 20:35:00
4:55 PM,50.7,12.4,22,29.99,10.0,SSW,9.2,-,N/A,,Overcast,210,2013-03-22 20:55:00
5:15 PM,50.4,13.3,23,29.99,10.0,SSW,6.9,-,N/A,,Overcast,210,2013-03-22 21:15:00
5:35 PM,50.0,13.3,23,29.99,10.0,SSW,5.8,-,N/A,,Overcast,210,2013-03-22 21:35:00
5:55 PM,50.0,14.5,24,29.99,10.0,SW,6.9,-,N/A,,Overcast,220,2013-03-22 21:55:00
6:15 PM,49.8,14.7,25,29.99,10.0,SSW,6.9,-,N/A,,Overcast,200,2013-03-22 22:15:00
6:35 PM,50.0,15.4,25,29.99,10.0,SW,6.9,-,N/A,,Overcast,220,2013-03-22 22:35:00
6:55 PM,49.5,15.6,26,30.00,10.0,SW,5.8,-,N/A,,Overcast,230,2013-03-22 22:55:00
7:15 PM,49.1,16.3,27,30.00,10.0,SW,5.8,-,N/A,,Overcast,230,2013-03-22 23:15:00
7:35 PM,48.7,16.9,28,30.00,10.0,Calm,Calm,-,N/A,,Overcast,0,2013-03-22 23:35:00
7:55 PM,47.8,17.1,29,30.01,10.0,Calm,Calm,-,N/A,,Overcast,0,2013-03-22 23:55:00
8:15 PM,45.3,22.8,41,30.01,10.0,Calm,Calm,-,N/A,,Overcast,0,2013-03-23 00:15:00
8:35 PM,45.0,23.7,43,30.01,10.0,Calm,Calm,-,N/A,,Overcast,0,2013-03-23 00:35:00
8:55 PM,47.1,18.7,32,30.02,10.0,Calm,Calm,-,N/A,,Overcast,0,2013-03-23 00:55:00
9:15 PM,47.3,18.5,32,30.02,10.0,West,4.6,-,N/A,,Overcast,260,2013-03-23 01:15:00
9:35 PM,46.2,19.0,34,30.03,10.0,SW,6.9,-,N/A,,Mostly Cloudy,230,2013-03-23 01:35:00
9:55 PM,45.7,19.4,35,30.03,10.0,WSW,6.9,-,N/A,,Mostly Cloudy,240,2013-03-23 01:55:00
10:15 PM,45.0,19.6,36,30.03,10.0,WSW,4.6,-,N/A,,Mostly Cloudy,240,2013-03-23 02:15:00
10:35 PM,44.6,19.6,37,30.03,10.0,WSW,4.6,-,N/A,,Overcast,240,2013-03-23 02:35:00
10:55 PM,43.9,20.3,39,30.04,10.0,SW,5.8,-,N/A,,Overcast,230,2013-03-23 02:55:00
11:15 PM,43.3,20.3,40,30.04,10.0,SW,4.6,-,N/A,,Mostly Cloudy,230,2013-03-23 03:15:00
11:35 PM,42.8,20.7,41,30.04,10.0,WSW,3.5,-,N/A,,Mostly Cloudy,250,2013-03-23 03:35:00
11:55 PM,42.6,20.7,42,30.04,10.0,WNW,3.5,-,N/A,,Overcast,300,2013-03-23 03:55:00